Regional Weather Roundup
Issued by NWS

Home | Current Version | Previous Version | Graphics & Text | Print | Product List | Glossary On
Versions: 1 2 3 4 5 6 7 8 9 10 11 12 13 14 15 16 17 18 19 20 21 22 23 24 25 26 27 28 29 30 31 32 33 34 35 36 37 38 39 40 41 42 43 44 45 46 47 48 49 50
000
ASUS43 KBIS 270820
RWRND

NORTH DAKOTA REGIONAL WEATHER ROUNDUP
NATIONAL WEATHER SERVICE BISMARCK ND
200 AM CST FRI FEB 27 2015

NOTE: "FAIR" INDICATES FEW OR NO CLOUDS BELOW 12,000 FEET WITH NO
SIGNIFICANT WEATHER AND/OR OBSTRUCTIONS TO VISIBILITY.


NDZ001>003-009>011-017-270900-
NORTHWEST NORTH DAKOTA

CITY           SKY/WX    TMP DP  RH WIND       PRES   REMARKS
WILLISTON      PTCLDY   -12 -16  82 CALM      30.38F
MINOT          FAIR     -10 -16  74 SW5       30.41F WCI -22
MINOT AFB      PTCLDY   -13 -19  75 W9        30.41F WCI -32
$$

NDZ018>021-031>035-040>046-270900-
SOUTHWEST NORTH DAKOTA

CITY           SKY/WX    TMP DP  RH WIND       PRES   REMARKS
BISMARCK       CLEAR     -7 -13  75 CALM      30.47F
DICKINSON      CLEAR     -5 -11  75 S9        30.31F WCI -22
GARRISON         N/A    -13 -18  78 CALM      30.41F
HETTINGER ARPT CLEAR     -6 -11  79 SE6       30.35F WCI -19
$$

NDZ004>008-012>016-024-026-027-054-270900-
NORTHEAST NORTH DAKOTA

CITY           SKY/WX    TMP DP  RH WIND       PRES   REMARKS
GRAND FORKS    CLEAR    -12 -18  74 SW3       30.47S
GRND FRKS AFB  CLEAR     -6 -14  67 W6        30.46F WCI -19
DEVILS LAKE    PTCLDY   N/A N/A N/A MISG        N/A
$$

NDZ022-023-025-028>030-036>039-047>053-270900-
SOUTHEAST NORTH DAKOTA

CITY           SKY/WX    TMP DP  RH WIND       PRES   REMARKS
FARGO          CLEAR     -7 -13  75 SW3       30.50S
JAMESTOWN      CLEAR     -9 -15  75 W8        30.44F WCI -25
$$




USA.gov is the U.S. government's official web portal to all federal, state and local government web resources and services.